Weather History for Glenwood, MN

Change the Weather History Date:

Friday, August 2, 2013

  Actual Average Record
Temperature  
Mean Temperature 64 °F -  
Max Temperature 75 °F 82 °F 95 °F (1958)
Min Temperature 53 °F 57 °F 42 °F (1950)
Degree Days  
Heating Degree Days 1    
Growing Degree Days 14 (Base 50)    
Moisture  
Dew Point 52 °F    
Average Humidity 65    
Maximum Humidity 94    
Minimum Humidity 34    
Precipitation  
Precipitation 0.00 in - - ()
Sea Level Pressure  
Sea Level Pressure 30.00 in    
Wind  
Wind Speed 5 mph (NW)    
Max Wind Speed 12 mph    
Max Gust Speed -    
Visibility 10 miles    
Events      
Averages and records for this station are not official NWS values.
T = Trace of Precipitation, MM = Missing Value Source: NWS Daily Summary

Daily Weather History Graph

Daily Weather History Graph

Search for Another Location

Airport:

Trip Planner

Search our weather history database for the weather conditions in past years. The results will help you decide how hot, cold, wet, or windy it might be!

Date:

Astronomy

Aug. 02, 2013 Rise Set
Actual Time 6:06 AM CDT 8:47 PM CDT
Civil Twilight 5:32 AM CDT 9:21 PM CDT
Nautical Twilight 4:49 AM CDT 10:04 PM CDT
Astronomical Twilight 3:58 AM CDT 10:54 PM CDT
Moon 2:25 AM CDT (8/2) 5:48 PM CDT (8/2)
Length of Visible Light 15h 49m
Length of Day
14h 41m
Waning Crescent, 15% of the Moon is Illuminated
Aug 2
Waning Crescent
Aug 6
New
Aug 14
First Quarter
Aug 20
Full
Aug 28
Last Quarter

Hourly Weather History & Observations

Time (CDT) Temp. Dew Point Humidity Pressure Visibility Wind Dir Wind Speed Gust Speed Precip Events Conditions
12:13 AM 60.8 °F 55.4 °F 82% 29.93 in 10.0 mi NW 5.8 mph - N/A   Clear
12:33 AM 60.8 °F 55.4 °F 82% 29.93 in 10.0 mi NW 5.8 mph - N/A   Clear
12:53 AM 60.8 °F 55.4 °F 82% 29.93 in 10.0 mi NW 5.8 mph - N/A   Clear
1:13 AM 60.8 °F 55.4 °F 82% 29.92 in 10.0 mi NNW 5.8 mph - N/A   Clear
1:34 AM 60.8 °F 53.6 °F 77% 29.92 in 10.0 mi NNW 6.9 mph - N/A   Clear
1:53 AM 60.8 °F 53.6 °F 77% 29.92 in 10.0 mi NNW 4.6 mph - N/A   Clear
2:13 AM 60.8 °F 53.6 °F 77% 29.93 in 10.0 mi NNW 5.8 mph - N/A   Clear
2:33 AM 59.0 °F 53.6 °F 82% 29.92 in 10.0 mi NNW 5.8 mph - N/A   Clear
2:53 AM 59.0 °F 53.6 °F 82% 29.93 in 10.0 mi NNW 5.8 mph - N/A   Clear
3:14 AM 59.0 °F 53.6 °F 82% 29.93 in 10.0 mi North 5.8 mph - N/A   Clear
3:33 AM 59.0 °F 53.6 °F 82% 29.93 in 10.0 mi North 3.5 mph - N/A   Clear
3:53 AM 57.2 °F 53.6 °F 88% 29.93 in 10.0 mi North 3.5 mph - N/A   Clear
4:13 AM 55.4 °F 51.8 °F 88% 29.93 in 10.0 mi Calm Calm - N/A   Clear
4:33 AM 55.4 °F 51.8 °F 88% 29.94 in 10.0 mi Calm Calm - N/A   Clear
4:54 AM 53.6 °F 51.8 °F 94% 29.94 in 10.0 mi Calm Calm - N/A   Clear
5:13 AM 53.6 °F 51.8 °F 94% 29.95 in 10.0 mi NW 3.5 mph - N/A   Clear
5:33 AM 55.4 °F 53.6 °F 94% 29.95 in 10.0 mi WNW 3.5 mph - N/A   Clear
5:53 AM 53.6 °F 51.8 °F 94% 29.95 in 10.0 mi Calm Calm - N/A   Clear
6:13 AM 55.4 °F 53.6 °F 94% 29.95 in 10.0 mi NNW 5.8 mph - N/A   Clear
6:34 AM 55.4 °F 51.8 °F 88% 29.96 in 10.0 mi Calm Calm - N/A   Clear
6:53 AM 53.6 °F 51.8 °F 94% 29.96 in 10.0 mi WNW 4.6 mph - N/A   Clear
7:14 AM 57.2 °F 55.4 °F 94% 29.96 in 10.0 mi West 3.5 mph - N/A   Clear
7:33 AM 60.8 °F 57.2 °F 88% 29.97 in 10.0 mi Calm Calm - N/A   Clear
7:53 AM 62.6 °F 57.2 °F 82% 29.97 in 10.0 mi WSW 4.6 mph - N/A   Clear
8:14 AM 64.4 °F 55.4 °F 73% 29.98 in 10.0 mi WSW 3.5 mph - N/A   Clear
8:33 AM 66.2 °F 55.4 °F 68% 29.98 in 10.0 mi West 3.5 mph - N/A   Clear
8:54 AM 66.2 °F 57.2 °F 73% 29.99 in 10.0 mi NW 4.6 mph - N/A   Clear
9:13 AM 66.2 °F 55.4 °F 68% 29.98 in 10.0 mi Calm Calm - N/A   Clear
9:33 AM 68.0 °F 55.4 °F 64% 29.98 in 10.0 mi NNW 4.6 mph - N/A   Clear
9:54 AM 68.0 °F 55.4 °F 64% 29.98 in 10.0 mi North 3.5 mph - N/A   Clear
10:13 AM 69.8 °F 55.4 °F 60% 29.98 in 10.0 mi NNW 5.8 mph - N/A   Clear
10:33 AM 69.8 °F 53.6 °F 56% 29.99 in 10.0 mi North 9.2 mph - N/A   Clear
10:53 AM 69.8 °F 55.4 °F 60% 29.99 in 10.0 mi NNW 6.9 mph - N/A   Clear
11:13 AM 69.8 °F 53.6 °F 56% 30.00 in 10.0 mi North 8.1 mph - N/A   Clear
11:34 AM 71.6 °F 53.6 °F 53% 30.00 in 10.0 mi North 8.1 mph - N/A   Clear
11:53 AM 71.6 °F 51.8 °F 50% 30.00 in 10.0 mi NNW 8.1 mph - N/A   Clear
12:14 PM 71.6 °F 51.8 °F 50% 30.00 in 10.0 mi North 8.1 mph - N/A   Clear
12:33 PM 73.4 °F 53.6 °F 50% 30.01 in 10.0 mi NNW 6.9 mph - N/A   Clear
12:53 PM 73.4 °F 48.2 °F 41% 30.01 in 10.0 mi North 8.1 mph - N/A   Clear
1:14 PM 73.4 °F 48.2 °F 41% 30.02 in 10.0 mi NNW 9.2 mph - N/A   Clear
1:33 PM 73.4 °F 46.4 °F 38% 30.02 in 10.0 mi North 9.2 mph - N/A   Clear
1:53 PM 73.4 °F 48.2 °F 41% 30.01 in 10.0 mi North 9.2 mph - N/A   Clear
2:13 PM 73.4 °F 48.2 °F 41% 30.01 in 10.0 mi NW 6.9 mph - N/A   Scattered Clouds
2:33 PM 73.4 °F 50.0 °F 44% 30.01 in 10.0 mi NNW 5.8 mph - N/A   Scattered Clouds
2:54 PM 73.4 °F 50.0 °F 44% 30.01 in 10.0 mi WNW 6.9 mph - N/A   Clear
3:13 PM 75.2 °F 46.4 °F 36% 30.01 in 10.0 mi WNW 6.9 mph - N/A   Clear
3:33 PM 73.4 °F 46.4 °F 38% 30.02 in 10.0 mi NNW 5.8 mph - N/A   Clear
3:53 PM 73.4 °F 44.6 °F 36% 30.01 in 10.0 mi NW 10.4 mph - N/A   Clear
4:13 PM 73.4 °F 46.4 °F 38% 30.00 in 10.0 mi NW 9.2 mph - N/A   Clear
4:33 PM 75.2 °F 44.6 °F 34% 30.00 in 10.0 mi NW 9.2 mph - N/A   Clear
4:53 PM 75.2 °F 44.6 °F 34% 30.01 in 10.0 mi NNW 11.5 mph - N/A   Clear
5:13 PM 73.4 °F 44.6 °F 36% 30.01 in 10.0 mi NW 10.4 mph - N/A   Clear
5:33 PM 73.4 °F 48.2 °F 41% 30.02 in 10.0 mi NW 8.1 mph - N/A   Clear
5:53 PM 73.4 °F 48.2 °F 41% 30.02 in 10.0 mi NW 10.4 mph - N/A   Clear
6:13 PM 73.4 °F 48.2 °F 41% 30.03 in 10.0 mi NW 9.2 mph - N/A   Clear
6:33 PM 73.4 °F 48.2 °F 41% 30.02 in 10.0 mi NW 9.2 mph - N/A   Clear
6:53 PM 71.6 °F 48.2 °F 43% 30.03 in 10.0 mi NW 8.1 mph - N/A   Clear
7:13 PM 71.6 °F 50.0 °F 46% 30.03 in 10.0 mi NW 5.8 mph - N/A   Clear
7:33 PM 71.6 °F 51.8 °F 50% 30.03 in 10.0 mi NNW 8.1 mph - N/A   Clear
7:53 PM 69.8 °F 51.8 °F 53% 30.04 in 10.0 mi NW 5.8 mph - N/A   Clear
8:14 PM 68.0 °F 51.8 °F 56% 30.04 in 10.0 mi NW 5.8 mph - N/A   Clear
8:33 PM 64.4 °F 53.6 °F 68% 30.05 in 10.0 mi NW 4.6 mph - N/A   Clear
8:54 PM 62.6 °F 53.6 °F 72% 30.05 in 10.0 mi NW 5.8 mph - N/A   Clear
9:13 PM 60.8 °F 51.8 °F 72% 30.06 in 10.0 mi NW 4.6 mph - N/A   Clear
9:33 PM 60.8 °F 51.8 °F 72% 30.07 in 10.0 mi WNW 5.8 mph - N/A   Clear
9:53 PM 59.0 °F 51.8 °F 77% 30.07 in 10.0 mi NW 4.6 mph - N/A   Clear
10:13 PM 59.0 °F 51.8 °F 77% 30.08 in 10.0 mi NW 4.6 mph - N/A   Clear
10:34 PM 57.2 °F 51.8 °F 82% 30.09 in 10.0 mi NW 6.9 mph - N/A   Clear
10:53 PM 59.0 °F 51.8 °F 77% 30.09 in 10.0 mi NW 6.9 mph - N/A   Clear
11:13 PM 57.2 °F 51.8 °F 82% 30.09 in 10.0 mi NW 5.8 mph - N/A   Clear
11:33 PM 57.2 °F 51.8 °F 82% 30.09 in 10.0 mi NNW 5.8 mph - N/A   Clear
11:53 PM 57.2 °F 51.8 °F 82% 30.09 in 10.0 mi NNW 4.6 mph - N/A   Clear